STARLINK-32618, 62045

Orbit data source: Space-Track

STARLINK-32618, 62045 is a payload satellite owned by SpaceX/Seattle (US) in LEO that was launched on Thu, 21 Nov 2024 UTC via an FALCON 9 launch vehicle from the Air Force Eastern Test Range (AFETR). Payload-class satellites include a variety of spacecraft equipped with specific instruments for various scientific and technological missions. These include communications satellites like Starlink; space stations such as the ISS; scientific satellites like the Hubble; Earth observation satellites from companies like Planet Labs, Umbra, and HawkEye 360; GPS; miniature CubeSats for education and research; and military/defense satellites.

Loading next visibility...
Identifier
62045, 2024-216P
Orbit
LEO
Country
Flag of USUS
Related business
Manufacturer
SpaceX/Seattle
Mission
Operational Commercial Communications
Bus & Motor
STARLINK V2M, Unknown motor
Mass
730 kg wet, ~700 kg dry
Launch date (UTC)
2024-11-21 (1 year ago)
Launch vehicle
FALCON 9
Launch site
Air Force Eastern Test Range (AFETR)
Object type
Payload
Rocket body
Debris
Shape & HBR
Box + 2 Pan, 17.7 m
Radar Cross Section
33.884 m², Large (>1 m²)

Expand to show TLE details & history
Last TLE update: 10 hours ago

TLE from 10 hours ago
0 STARLINK-32618
1 62045U 24216P   25351.30362634  .00024566  00000-0  89860-3 0  9992
2 62045  43.0015   1.7779 0000836 273.0715  87.0041 15.27604686 61276
Epoch: 2025-12-17T07:17Z
TLE epoch observation values (Epoch: 2025-12-17T07:17:13.315Z)
Latitude
-0.00003°
Longitude
166.29697°
Altitude
482.721 km
Speed
7.626 km/s
True Right ascension
00h 07m 06s
True Declination
0° 00' 00"
Sunlit
Object was in daylight at epoch
Visualization orbit readout
Latitude
Unknown
Longitude
Unknown
Altitude
Unknown
Speed
Unknown
Apparent Right ascension
Unknown
Apparent Declination
Unknown
Sunlit
N/A
Visualization observer readout
Local Sidereal Time
15:47:46
Azimuth
Unknown
Elevation
Unknown
Doppler factor
Unknown
Orbital elements
Apogee altitude
485.494 km
Perigee altitude
484.346 km
Semi-major axis
6,863.057 km
Eccentricity
0.00008
Inclination
43.0015°
RAAN
1.7779°
Arg. of periapsis
273.0715°
True anomaly
87.01367°
Mean anomaly
87.0041°
Eccentric anomaly
87.00888°
Mean motion
3.81739 °/min
Orbital period
94.31 mins
BSTAR
0.0008986
Loading maneuver chart data...
Computing Atmospheric mass density...
Loading historical data...
Loading historical data...
Loading historical data...
Loading historical data...
Loading historical data...
Loading historical data...
Loading historical data...

Documentation

Showing up to 5 results
|